,,,PA_Meas_PMT16A,,PR_Meas_QMR101_102,,RH_Meas_QMH101,,SR_Meas_QMS101,,TA_Meas_QMH101,,GenWind,,GenWind,
date,time,status,PA,status,PR,status,RH,status,SR,status,TA,status,DirAvg,status,SpdAvg,
2014-07-22, 00:00:05,VALID,1010.6,VALID,0,INVALID,110.261,VALID,0,VALID,23.7135,VALID,107,VALID,0,
2014-07-22, 00:01:05,VALID,1010.61,VALID,0,INVALID,110.223,VALID,0,VALID,23.7525,VALID,107,VALID,0,
2014-07-22, 00:02:05,VALID,1010.59,VALID,0,INVALID,110.192,VALID,0,VALID,23.7701,VALID,107,VALID,0,
2014-07-22, 00:03:05,VALID,1010.58,VALID,0,INVALID,110.162,VALID,0,VALID,23.8109,VALID,107,VALID,0,
2014-07-22, 00:04:05,VALID,1010.58,VALID,0,INVALID,110.177,VALID,0.112112,VALID,23.7914,VALID,107,VALID,0,
2014-07-22, 00:05:05,VALID,1010.6,VALID,0,INVALID,110.177,VALID,0,VALID,23.7701,VALID,107,VALID,0,
2014-07-22, 00:06:05,VALID,1010.58,VALID,0,INVALID,110.192,VALID,0,VALID,23.772,VALID,107,VALID,0,
2014-07-22, 00:07:05,VALID,1010.6,VALID,0,INVALID,110.207,VALID,0,VALID,23.7525,VALID,107,VALID,0,
2014-07-22, 00:08:05,VALID,1010.56,VALID,0,INVALID,110.238,VALID,0,VALID,23.733,VALID,107,VALID,0,
2014-07-22, 00:09:05,VALID,1010.58,VALID,0,INVALID,110.23,VALID,0,VALID,23.7135,VALID,107,VALID,0,
2014-07-22, 00:10:05,VALID,1010.61,VALID,0,INVALID,110.215,VALID,0,VALID,23.694,VALID,107,VALID,0,
2014-07-22, 00:11:05,VALID,1010.61,VALID,0,INVALID,110.23,VALID,0,VALID,23.694,VALID,107,VALID,0,
2014-07-22, 00:12:05,VALID,1010.6,VALID,0,INVALID,110.192,VALID,0,VALID,23.7135,VALID,107,VALID,0,
2014-07-22, 00:13:05,VALID,1010.6,VALID,0,INVALID,110.169,VALID,0,VALID,23.7135,VALID,107,VALID,0,
2014-07-22, 00:14:05,VALID,1010.59,VALID,0,INVALID,110.154,VALID,0,VALID,23.733,VALID,107,VALID,0,
2014-07-22, 00:15:05,VALID,1010.56,VALID,0,INVALID,110.154,VALID,0.112112,VALID,23.733,VALID,107,VALID,0,
2014-07-22, 00:16:05,VALID,1010.55,VALID,0,INVALID,110.192,VALID,0,VALID,23.6922,VALID,107,VALID,0,
2014-07-22, 00:17:05,VALID,1010.52,VALID,0,INVALID,110.185,VALID,0,VALID,23.6727,VALID,107,VALID,0,
2014-07-22, 00:18:05,VALID,1010.54,VALID,0,INVALID,110.223,VALID,0.112112,VALID,23.6745,VALID,107,VALID,0,
2014-07-22, 00:19:05,VALID,1010.52,VALID,0,INVALID,110.23,VALID,0,VALID,23.655,VALID,107,VALID,0,
2014-07-22, 00:20:05,VALID,1010.5,VALID,0,INVALID,110.253,VALID,0,VALID,23.655,VALID,107,VALID,0,
2014-07-22, 00:21:05,VALID,1010.5,VALID,0,INVALID,110.23,VALID,0,VALID,23.6356,VALID,107,VALID,0,
2014-07-22, 00:22:05,VALID,1010.5,VALID,0,INVALID,110.215,VALID,0,VALID,23.655,VALID,107,VALID,0,
2014-07-22, 00:23:05,VALID,1010.49,VALID,0,INVALID,110.192,VALID,0,VALID,23.655,VALID,107,VALID,0,
2014-07-22, 00:24:05,VALID,1010.5,VALID,0,INVALID,110.192,VALID,0.112112,VALID,23.655,VALID,107,VALID,0,
2014-07-22, 00:25:05,VALID,1010.51,VALID,0,INVALID,110.185,VALID,0,VALID,23.6161,VALID,107,VALID,0,
2014-07-22, 00:26:05,VALID,1010.49,VALID,0,INVALID,110.177,VALID,0.112112,VALID,23.6161,VALID,107,VALID,0,
2014-07-22, 00:27:05,VALID,1010.48,VALID,0,INVALID,110.154,VALID,0.112112,VALID,23.6143,VALID,107,VALID,0,
2014-07-22, 00:28:05,VALID,1010.5,VALID,0,INVALID,110.177,VALID,0.112112,VALID,23.655,VALID,107,VALID,0,
2014-07-22, 00:29:05,VALID,1010.51,VALID,0,INVALID,110.169,VALID,0,VALID,23.6161,VALID,107,VALID,0,
2014-07-22, 00:30:05,VALID,1010.53,VALID,0,INVALID,110.185,VALID,0,VALID,23.5966,VALID,107,VALID,0,
2014-07-22, 00:31:05,VALID,1010.55,VALID,0,INVALID,110.162,VALID,0.112112,VALID,23.5948,VALID,107,VALID,0,
2014-07-22, 00:32:05,VALID,1010.54,VALID,0,INVALID,110.146,VALID,0.112112,VALID,23.5948,VALID,107,VALID,0,
2014-07-22, 00:33:05,VALID,1010.55,VALID,0,INVALID,110.124,VALID,0,VALID,23.5753,VALID,107,VALID,0,
2014-07-22, 00:34:05,VALID,1010.55,VALID,0,INVALID,110.101,VALID,0,VALID,23.6143,VALID,107,VALID,0,
2014-07-22, 00:35:05,VALID,1010.55,VALID,0,INVALID,110.07,VALID,0.112112,VALID,23.655,VALID,107,VALID,0,
2014-07-22, 00:36:05,VALID,1010.53,VALID,0,INVALID,110.07,VALID,0,VALID,23.655,VALID,107,VALID,0,
2014-07-22, 00:37:05,VALID,1010.5,VALID,0,INVALID,110.07,VALID,0.112112,VALID,23.6338,VALID,107,VALID,0,
2014-07-22, 00:38:05,VALID,1010.47,VALID,0,INVALID,110.063,VALID,0,VALID,23.6356,VALID,107,VALID,0,
2014-07-22, 00:39:05,VALID,1010.44,VALID,0,INVALID,110.154,VALID,0,VALID,23.5558,VALID,107,VALID,0,
2014-07-22, 00:40:05,VALID,1010.45,VALID,0,INVALID,110.169,VALID,0.112112,VALID,23.5381,VALID,107,VALID,0,
2014-07-22, 00:41:05,VALID,1010.47,VALID,0,INVALID,110.185,VALID,0,VALID,23.5186,VALID,107,VALID,0,
2014-07-22, 00:42:05,VALID,1010.47,VALID,0,INVALID,110.177,VALID,0,VALID,23.4992,VALID,107,VALID,0,
2014-07-22, 00:43:05,VALID,1010.49,VALID,0,INVALID,110.146,VALID,0,VALID,23.4779,VALID,107,VALID,0,
2014-07-22, 00:44:05,VALID,1010.47,VALID,0,INVALID,110.2,VALID,0.112112,VALID,23.4797,VALID,107,VALID,0,
2014-07-22, 00:45:05,VALID,1010.47,VALID,0,INVALID,110.185,VALID,0,VALID,23.4602,VALID,107,VALID,0,
2014-07-22, 00:46:05,VALID,1010.45,VALID,0,INVALID,110.2,VALID,0.112112,VALID,23.4212,VALID,107,VALID,0,
2014-07-22, 00:47:05,VALID,1010.41,VALID,0,INVALID,110.23,VALID,0,VALID,23.4017,VALID,107,VALID,0,
2014-07-22, 00:48:05,VALID,1010.4,VALID,0,INVALID,110.223,VALID,0,VALID,23.3823,VALID,107,VALID,0,
2014-07-22, 00:49:05,VALID,1010.38,VALID,0,INVALID,110.246,VALID,0.112112,VALID,23.3823,VALID,107,VALID,0,
2014-07-22, 00:50:05,VALID,1010.34,VALID,0,INVALID,110.23,VALID,0,VALID,23.3628,VALID,107,VALID,0,
2014-07-22, 00:51:05,VALID,1010.33,VALID,0,INVALID,110.238,VALID,0,VALID,23.3628,VALID,107,VALID,0,
2014-07-22, 00:52:05,VALID,1010.29,VALID,0,INVALID,110.253,VALID,0,VALID,23.3451,VALID,107,VALID,0,
2014-07-22, 00:53:05,VALID,1010.26,VALID,0,INVALID,110.207,VALID,0,VALID,23.3433,VALID,107,VALID,0,
2014-07-22, 00:54:05,VALID,1010.24,VALID,0,INVALID,110.192,VALID,0.112112,VALID,23.3628,VALID,107,VALID,0,
2014-07-22, 00:55:05,VALID,1010.25,VALID,0,INVALID,110.177,VALID,0,VALID,23.3823,VALID,107,VALID,0,
2014-07-22, 00:56:05,VALID,1010.23,VALID,0,INVALID,110.154,VALID,0,VALID,23.3823,VALID,107,VALID,0,
2014-07-22, 00:57:05,VALID,1010.25,VALID,0,INVALID,110.162,VALID,0,VALID,23.3823,VALID,107,VALID,0,
2014-07-22, 00:58:05,VALID,1010.23,VALID,0,INVALID,110.146,VALID,0,VALID,23.3628,VALID,107,VALID,0,
2014-07-22, 00:59:05,VALID,1010.25,VALID,0,INVALID,110.116,VALID,0,VALID,23.3823,VALID,107,VALID,0,
2014-07-22, 01:00:05,VALID,1010.21,VALID,0,INVALID,110.085,VALID,0,VALID,23.4212,VALID,107,VALID,0,
2014-07-22, 01:01:05,VALID,1010.22,VALID,0,INVALID,110.063,VALID,0,VALID,23.4212,VALID,107,VALID,0,
2014-07-22, 01:02:05,VALID,1010.17,VALID,0,INVALID,110.078,VALID,0,VALID,23.4212,VALID,107,VALID,0,
2014-07-22, 01:03:05,VALID,1010.17,VALID,0,INVALID,110.063,VALID,0,VALID,23.4212,VALID,107,VALID,0,
2014-07-22, 01:04:05,VALID,1010.14,VALID,0,INVALID,110.04,VALID,0,VALID,23.4212,VALID,107,VALID,0,
2014-07-22, 01:05:05,VALID,1010.15,VALID,0,INVALID,110.009,VALID,0,VALID,23.4407,VALID,107,VALID,0,
2014-07-22, 01:06:05,VALID,1010.14,VALID,0,INVALID,109.956,VALID,0,VALID,23.4797,VALID,107,VALID,0,
2014-07-22, 01:07:05,VALID,1010.11,VALID,0,INVALID,109.948,VALID,0.112112,VALID,23.4797,VALID,107,VALID,0,
2014-07-22, 01:08:05,VALID,1010.16,VALID,0,INVALID,109.918,VALID,0,VALID,23.5186,VALID,107,VALID,0,
2014-07-22, 01:09:05,VALID,1010.14,VALID,0,INVALID,109.902,VALID,0.112112,VALID,23.5381,VALID,107,VALID,0,
2014-07-22, 01:10:05,VALID,1010.14,VALID,0,INVALID,109.857,VALID,0,VALID,23.5576,VALID,107,VALID,0,
2014-07-22, 01:11:05,VALID,1010.14,VALID,0,INVALID,109.818,VALID,0,VALID,23.5771,VALID,107,VALID,0,
2014-07-22, 01:12:05,VALID,1010.14,VALID,0,INVALID,109.841,VALID,0,VALID,23.5966,VALID,107,VALID,0,
2014-07-22, 01:13:05,VALID,1010.11,VALID,0,INVALID,109.864,VALID,0,VALID,23.5771,VALID,107,VALID,0,
2014-07-22, 01:14:05,VALID,1010.11,VALID,0,INVALID,109.864,VALID,0,VALID,23.5576,VALID,107,VALID,0,
2014-07-22, 01:15:05,VALID,1010.07,VALID,0,INVALID,109.925,VALID,0,VALID,23.5381,VALID,107,VALID,0,
2014-07-22, 01:16:05,VALID,1010.06,VALID,0,INVALID,109.963,VALID,0,VALID,23.4797,VALID,107,VALID,0,
2014-07-22, 01:17:05,VALID,1010.06,VALID,0,INVALID,110.001,VALID,0,VALID,23.4407,VALID,107,VALID,0,
2014-07-22, 01:18:05,VALID,1010.04,VALID,0,INVALID,110.001,VALID,0,VALID,23.4212,VALID,107,VALID,0,
2014-07-22, 01:19:05,VALID,1010.04,VALID,0,INVALID,110.017,VALID,0,VALID,23.4017,VALID,107,VALID,0,
2014-07-22, 01:20:05,VALID,1010.02,VALID,0,INVALID,109.971,VALID,0,VALID,23.4212,VALID,107,VALID,0,
2014-07-22, 01:21:05,VALID,1010.03,VALID,0,INVALID,109.933,VALID,0,VALID,23.4,VALID,107,VALID,0,
2014-07-22, 01:22:05,VALID,1010.01,VALID,0,INVALID,109.918,VALID,0,VALID,23.4602,VALID,107,VALID,0,
2014-07-22, 01:23:05,VALID,1010.02,VALID,0,INVALID,109.887,VALID,0,VALID,23.4797,VALID,107,VALID,0,
2014-07-22, 01:24:05,VALID,1010.02,VALID,0,INVALID,109.834,VALID,0,VALID,23.4992,VALID,107,VALID,0,
2014-07-22, 01:25:05,VALID,1010,VALID,0,INVALID,109.826,VALID,0,VALID,23.5186,VALID,107,VALID,0,
2014-07-22, 01:26:05,VALID,1009.98,VALID,0,INVALID,109.796,VALID,0,VALID,23.5381,VALID,107,VALID,0,
2014-07-22, 01:27:05,VALID,1009.95,VALID,0,INVALID,109.796,VALID,0,VALID,23.5576,VALID,107,VALID,0,
2014-07-22, 01:28:05,VALID,1009.93,VALID,0,INVALID,109.788,VALID,0,VALID,23.5576,VALID,107,VALID,0,
2014-07-22, 01:29:05,VALID,1009.9,VALID,0,INVALID,109.796,VALID,0,VALID,23.5771,VALID,107,VALID,0,
2014-07-22, 01:30:05,VALID,1009.84,VALID,0,INVALID,109.796,VALID,0,VALID,23.5771,VALID,107,VALID,0,
2014-07-22, 01:31:05,VALID,1009.85,VALID,0,INVALID,109.872,VALID,0,VALID,23.5186,VALID,107,VALID,0,
2014-07-22, 01:32:05,VALID,1009.8,VALID,0,INVALID,109.91,VALID,0,VALID,23.4797,VALID,107,VALID,0,
2014-07-22, 01:33:05,VALID,1009.79,VALID,0,INVALID,109.94,VALID,0.112112,VALID,23.4212,VALID,107,VALID,0,
2014-07-22, 01:34:05,VALID,1009.82,VALID,0,INVALID,109.948,VALID,0,VALID,23.4212,VALID,107,VALID,0,
2014-07-22, 01:35:05,VALID,1009.8,VALID,0,INVALID,109.956,VALID,0,VALID,23.4017,VALID,107,VALID,0,
2014-07-22, 01:36:05,VALID,1009.81,VALID,0,INVALID,109.979,VALID,0,VALID,23.3823,VALID,107,VALID,0,
2014-07-22, 01:37:05,VALID,1009.79,VALID,0,INVALID,109.956,VALID,0,VALID,23.3823,VALID,107,VALID,0,
2014-07-22, 01:38:05,VALID,1009.82,VALID,0,INVALID,109.918,VALID,0.112112,VALID,23.361,VALID,107,VALID,0,
2014-07-22, 01:39:05,VALID,1009.81,VALID,0,INVALID,109.91,VALID,0,VALID,23.4017,VALID,107,VALID,0,
2014-07-22, 01:40:05,VALID,1009.78,VALID,0,INVALID,109.918,VALID,0,VALID,23.4017,VALID,107,VALID,0,
2014-07-22, 01:41:05,VALID,1009.78,VALID,0,INVALID,109.91,VALID,0,VALID,23.4017,VALID,107,VALID,0,
2014-07-22, 01:42:05,VALID,1009.81,VALID,0,INVALID,109.948,VALID,0,VALID,23.3823,VALID,107,VALID,0,
2014-07-22, 01:43:05,VALID,1009.8,VALID,0,INVALID,109.956,VALID,0,VALID,23.3628,VALID,107,VALID,0,
2014-07-22, 01:44:05,VALID,1009.81,VALID,0,INVALID,109.948,VALID,0,VALID,23.3433,VALID,107,VALID,0,
2014-07-22, 01:45:05,VALID,1009.78,VALID,0,INVALID,109.956,VALID,0,VALID,23.3433,VALID,107,VALID,0,
2014-07-22, 01:46:05,VALID,1009.81,VALID,0,INVALID,109.956,VALID,0,VALID,23.3238,VALID,107,VALID,0,
2014-07-22, 01:47:05,VALID,1009.81,VALID,0,INVALID,109.963,VALID,0,VALID,23.3043,VALID,107,VALID,0,
2014-07-22, 01:48:05,VALID,1009.79,VALID,0,INVALID,109.971,VALID,0,VALID,23.2848,VALID,107,VALID,0,
2014-07-22, 01:49:05,VALID,1009.79,VALID,0,INVALID,109.956,VALID,0,VALID,23.3043,VALID,107,VALID,0,
2014-07-22, 01:50:05,VALID,1009.81,VALID,0,INVALID,109.963,VALID,0.112112,VALID,23.2848,VALID,107,VALID,0,
2014-07-22, 01:51:05,VALID,1009.79,VALID,0,INVALID,109.971,VALID,0,VALID,23.2848,VALID,107,VALID,0,
2014-07-22, 01:52:05,VALID,1009.8,VALID,0,INVALID,109.963,VALID,0,VALID,23.2848,VALID,107,VALID,0,
2014-07-22, 01:53:05,VALID,1009.82,VALID,0,INVALID,110.009,VALID,0.112112,VALID,23.2654,VALID,107,VALID,0,
2014-07-22, 01:54:05,VALID,1009.8,VALID,0,INVALID,109.986,VALID,0,VALID,23.2654,VALID,107,VALID,0,
2014-07-22, 01:55:05,VALID,1009.82,VALID,0,INVALID,109.963,VALID,0.112112,VALID,23.2459,VALID,107,VALID,0,
2014-07-22, 01:56:05,VALID,1009.83,VALID,0,INVALID,109.948,VALID,0,VALID,23.2246,VALID,107,VALID,0,
2014-07-22, 01:57:05,VALID,1009.8,VALID,0,INVALID,109.971,VALID,0,VALID,23.2459,VALID,107,VALID,0,
2014-07-22, 01:58:05,VALID,1009.81,VALID,0,INVALID,109.925,VALID,0,VALID,23.2441,VALID,107,VALID,0,
2014-07-22, 01:59:05,VALID,1009.81,VALID,0,INVALID,109.925,VALID,0,VALID,23.2459,VALID,107,VALID,0,
2014-07-22, 02:00:05,VALID,1009.79,VALID,0,INVALID,110.001,VALID,0,VALID,23.2264,VALID,107,VALID,0,
2014-07-22, 02:01:05,VALID,1009.78,VALID,0,INVALID,110.024,VALID,0,VALID,23.1874,VALID,107,VALID,0,
2014-07-22, 02:02:05,VALID,1009.76,VALID,0,INVALID,109.994,VALID,0,VALID,23.1679,VALID,107,VALID,0,
2014-07-22, 02:03:05,VALID,1009.76,VALID,0,INVALID,110.024,VALID,0,VALID,23.129,VALID,107,VALID,0,
2014-07-22, 02:04:05,VALID,1009.74,VALID,0,INVALID,110.047,VALID,0,VALID,23.1095,VALID,107,VALID,0,
2014-07-22, 02:05:05,VALID,1009.7,VALID,0,INVALID,110.024,VALID,0,VALID,23.09,VALID,107,VALID,0,
2014-07-22, 02:06:05,VALID,1009.71,VALID,0,INVALID,110.078,VALID,0,VALID,23.0493,VALID,107,VALID,0,
2014-07-22, 02:07:05,VALID,1009.71,VALID,0,INVALID,110.07,VALID,0,VALID,23.0705,VALID,107,VALID,0,
2014-07-22, 02:08:05,VALID,1009.72,VALID,0,INVALID,110.047,VALID,0,VALID,23.0511,VALID,107,VALID,0,
2014-07-22, 02:09:04,VALID,1009.73,VALID,0,INVALID,110.055,VALID,0,VALID,23.0511,VALID,107,VALID,0,
2014-07-22, 02:10:04,VALID,1009.75,VALID,0,INVALID,110.07,VALID,0,VALID,23.0316,VALID,107,VALID,0,
2014-07-22, 02:11:04,VALID,1009.74,VALID,0,INVALID,110.055,VALID,0,VALID,23.0121,VALID,107,VALID,0,
2014-07-22, 02:12:04,VALID,1009.76,VALID,0,INVALID,110.063,VALID,0,VALID,22.9926,VALID,107,VALID,0,
2014-07-22, 02:13:04,VALID,1009.74,VALID,0,INVALID,110.055,VALID,0.112112,VALID,22.9909,VALID,107,VALID,0,
2014-07-22, 02:14:04,VALID,1009.77,VALID,0,INVALID,110.024,VALID,0,VALID,23.0121,VALID,107,VALID,0,
2014-07-22, 02:15:04,VALID,1009.77,VALID,0,INVALID,109.994,VALID,0,VALID,23.0121,VALID,107,VALID,0,
2014-07-22, 02:16:04,VALID,1009.77,VALID,0,INVALID,109.956,VALID,0,VALID,23.0511,VALID,107,VALID,0,
2014-07-22, 02:17:04,VALID,1009.75,VALID,0,INVALID,109.986,VALID,0,VALID,23.0316,VALID,107,VALID,0,
2014-07-22, 02:18:04,VALID,1009.74,VALID,0,INVALID,109.994,VALID,0,VALID,23.0121,VALID,107,VALID,0,
2014-07-22, 02:19:04,VALID,1009.73,VALID,0,INVALID,109.994,VALID,0,VALID,22.9926,VALID,107,VALID,0,
2014-07-22, 02:20:04,VALID,1009.74,VALID,0,INVALID,110.009,VALID,0,VALID,22.9731,VALID,107,VALID,0,
2014-07-22, 02:21:04,VALID,1009.73,VALID,0,INVALID,110.063,VALID,0,VALID,22.9342,VALID,107,VALID,0,
2014-07-22, 02:22:04,VALID,1009.74,VALID,0,INVALID,110.07,VALID,0.112112,VALID,22.8935,VALID,107,VALID,0,
2014-07-22, 02:23:04,VALID,1009.72,VALID,0,INVALID,110.063,VALID,0,VALID,22.8952,VALID,107,VALID,0,
2014-07-22, 02:24:04,VALID,1009.72,VALID,0,INVALID,110.047,VALID,0,VALID,22.8952,VALID,107,VALID,0,
2014-07-22, 02:25:04,VALID,1009.72,VALID,0,INVALID,110.024,VALID,0.112112,VALID,22.8952,VALID,107,VALID,0,
2014-07-22, 02:26:04,VALID,1009.72,VALID,0,INVALID,110.032,VALID,0,VALID,22.8952,VALID,107,VALID,0,
2014-07-22, 02:27:04,VALID,1009.71,VALID,0,INVALID,110.009,VALID,0,VALID,22.8952,VALID,107,VALID,0,
2014-07-22, 02:28:04,VALID,1009.71,VALID,0,INVALID,109.963,VALID,0,VALID,22.9359,VALID,107,VALID,0,
2014-07-22, 02:29:04,VALID,1009.71,VALID,0,INVALID,109.94,VALID,0,VALID,22.9147,VALID,107,VALID,0,
2014-07-22, 02:30:04,VALID,1009.67,VALID,0,INVALID,109.979,VALID,0,VALID,22.8952,VALID,107,VALID,0,
2014-07-22, 02:31:04,VALID,1009.66,VALID,0,INVALID,109.971,VALID,0,VALID,22.8952,VALID,107,VALID,0,
2014-07-22, 02:32:04,VALID,1009.65,VALID,0,INVALID,109.979,VALID,0,VALID,22.8757,VALID,107,VALID,0,
2014-07-22, 02:33:04,VALID,1009.66,VALID,0,INVALID,110.001,VALID,0,VALID,22.8562,VALID,107,VALID,0,
2014-07-22, 02:34:04,VALID,1009.66,VALID,0,INVALID,109.979,VALID,0,VALID,22.8368,VALID,107,VALID,0,
2014-07-22, 02:35:04,VALID,1009.65,VALID,0,INVALID,109.986,VALID,0,VALID,22.8368,VALID,107,VALID,0,
2014-07-22, 02:36:04,VALID,1009.68,VALID,0,INVALID,110.001,VALID,0,VALID,22.8368,VALID,107,VALID,0,
2014-07-22, 02:37:04,VALID,1009.7,VALID,0,INVALID,110.001,VALID,0,VALID,22.8173,VALID,107,VALID,0,
2014-07-22, 02:38:04,VALID,1009.7,VALID,0,INVALID,109.963,VALID,0,VALID,22.8368,VALID,107,VALID,0,
2014-07-22, 02:39:04,VALID,1009.68,VALID,0,INVALID,109.956,VALID,0,VALID,22.8173,VALID,107,VALID,0,
2014-07-22, 02:40:04,VALID,1009.68,VALID,0,INVALID,109.971,VALID,0,VALID,22.7961,VALID,107,VALID,0,
2014-07-22, 02:41:04,VALID,1009.66,VALID,0,INVALID,109.94,VALID,0,VALID,22.7978,VALID,107,VALID,0,
2014-07-22, 02:42:04,VALID,1009.64,VALID,0,INVALID,109.94,VALID,0,VALID,22.8173,VALID,107,VALID,0,
2014-07-22, 02:43:04,VALID,1009.63,VALID,0,INVALID,109.948,VALID,0,VALID,22.8173,VALID,107,VALID,0,
2014-07-22, 02:44:04,VALID,1009.62,VALID,0,INVALID,109.963,VALID,0,VALID,22.819,VALID,107,VALID,0,
2014-07-22, 02:45:04,VALID,1009.62,VALID,0,INVALID,109.948,VALID,0,VALID,22.7783,VALID,107,VALID,0,
2014-07-22, 02:46:04,VALID,1009.62,VALID,0,INVALID,109.948,VALID,0,VALID,22.7571,VALID,107,VALID,0,
2014-07-22, 02:47:04,VALID,1009.62,VALID,0,INVALID,109.933,VALID,0,VALID,22.7588,VALID,107,VALID,0,
2014-07-22, 02:48:04,VALID,1009.6,VALID,0,INVALID,109.956,VALID,0,VALID,22.7783,VALID,107,VALID,0,
2014-07-22, 02:49:04,VALID,1009.62,VALID,0,INVALID,109.925,VALID,0,VALID,22.7995,VALID,107,VALID,0,
2014-07-22, 02:50:04,VALID,1009.58,VALID,0,INVALID,109.879,VALID,0,VALID,22.7978,VALID,107,VALID,0,
2014-07-22, 02:51:04,VALID,1009.58,VALID,0,INVALID,109.887,VALID,0,VALID,22.7961,VALID,107,VALID,0,
2014-07-22, 02:52:04,VALID,1009.59,VALID,0,INVALID,109.879,VALID,0,VALID,22.7978,VALID,107,VALID,0,
2014-07-22, 02:53:04,VALID,1009.57,VALID,0,INVALID,109.887,VALID,0,VALID,22.7766,VALID,107,VALID,0,
2014-07-22, 02:54:04,VALID,1009.58,VALID,0,INVALID,109.91,VALID,0,VALID,22.7571,VALID,107,VALID,0,
2014-07-22, 02:55:04,VALID,1009.57,VALID,0,INVALID,109.887,VALID,0,VALID,22.7588,VALID,107,VALID,0,
2014-07-22, 02:56:04,VALID,1009.59,VALID,0,INVALID,109.879,VALID,0,VALID,22.7588,VALID,107,VALID,0,
2014-07-22, 02:57:04,VALID,1009.6,VALID,0,INVALID,109.872,VALID,0,VALID,22.7588,VALID,107,VALID,0,
2014-07-22, 02:58:04,VALID,1009.6,VALID,0,INVALID,109.849,VALID,0,VALID,22.7588,VALID,107,VALID,0,
2014-07-22, 02:59:04,VALID,1009.57,VALID,0,INVALID,109.895,VALID,0,VALID,22.7588,VALID,107,VALID,0,
2014-07-22, 03:00:04,VALID,1009.56,VALID,0,INVALID,109.872,VALID,0,VALID,22.7199,VALID,107,VALID,0,
2014-07-22, 03:01:04,VALID,1009.55,VALID,0,INVALID,109.91,VALID,0,VALID,22.7199,VALID,107,VALID,0,
2014-07-22, 03:02:04,VALID,1009.58,VALID,0,INVALID,109.925,VALID,0,VALID,22.6809,VALID,107,VALID,0,
2014-07-22, 03:03:04,VALID,1009.56,VALID,0,INVALID,109.918,VALID,0,VALID,22.6614,VALID,107,VALID,0,
2014-07-22, 03:04:04,VALID,1009.54,VALID,0,INVALID,109.918,VALID,0,VALID,22.6614,VALID,107,VALID,0,
2014-07-22, 03:05:04,VALID,1009.52,VALID,0,INVALID,109.925,VALID,0,VALID,22.6614,VALID,107,VALID,0,
2014-07-22, 03:06:04,VALID,1009.49,VALID,0,INVALID,109.918,VALID,0,VALID,22.6614,VALID,107,VALID,0,
2014-07-22, 03:07:04,VALID,1009.49,VALID,0,INVALID,109.918,VALID,0,VALID,22.6614,VALID,107,VALID,0,
2014-07-22, 03:08:04,VALID,1009.51,VALID,0,INVALID,109.895,VALID,0,VALID,22.6614,VALID,107,VALID,0,
2014-07-22, 03:09:04,VALID,1009.51,VALID,0,INVALID,109.895,VALID,0,VALID,22.7021,VALID,107,VALID,0,
2014-07-22, 03:10:04,VALID,1009.53,VALID,0,INVALID,109.902,VALID,0,VALID,22.6614,VALID,107,VALID,0,
2014-07-22, 03:11:04,VALID,1009.53,VALID,0,INVALID,109.902,VALID,0,VALID,22.6826,VALID,107,VALID,0,
2014-07-22, 03:12:04,VALID,1009.54,VALID,0,INVALID,109.902,VALID,0,VALID,22.6614,VALID,107,VALID,0,
2014-07-22, 03:13:04,VALID,1009.54,VALID,0,INVALID,109.91,VALID,0,VALID,22.642,VALID,107,VALID,0,
2014-07-22, 03:14:04,VALID,1009.54,VALID,0,INVALID,109.902,VALID,0,VALID,22.6614,VALID,107,VALID,0,
2014-07-22, 03:15:04,VALID,1009.52,VALID,0,INVALID,109.826,VALID,0,VALID,22.6809,VALID,107,VALID,0,
2014-07-22, 03:16:04,VALID,1009.53,VALID,0,INVALID,109.78,VALID,0,VALID,22.7004,VALID,107,VALID,0,
2014-07-22, 03:17:04,VALID,1009.51,VALID,0,INVALID,109.757,VALID,0,VALID,22.7394,VALID,107,VALID,0,
2014-07-22, 03:18:04,VALID,1009.51,VALID,0,INVALID,109.75,VALID,0,VALID,22.7588,VALID,107,VALID,0,
2014-07-22, 03:19:04,VALID,1009.5,VALID,0,INVALID,109.735,VALID,0,VALID,22.7588,VALID,107,VALID,0,
2014-07-22, 03:20:04,VALID,1009.49,VALID,0,INVALID,109.742,VALID,0,VALID,22.7588,VALID,107,VALID,0,
2014-07-22, 03:21:04,VALID,1009.53,VALID,0,INVALID,109.765,VALID,0,VALID,22.7376,VALID,107,VALID,0,
2014-07-22, 03:22:04,VALID,1009.51,VALID,0,INVALID,109.78,VALID,0,VALID,22.7199,VALID,107,VALID,0,
2014-07-22, 03:23:04,VALID,1009.52,VALID,0,INVALID,109.841,VALID,0,VALID,22.7004,VALID,107,VALID,0,
2014-07-22, 03:24:04,VALID,1009.53,VALID,0,INVALID,109.818,VALID,0,VALID,22.6809,VALID,107,VALID,0,
2014-07-22, 03:25:04,VALID,1009.52,VALID,0,INVALID,109.834,VALID,0,VALID,22.6809,VALID,107,VALID,0,
2014-07-22, 03:26:04,VALID,1009.51,VALID,0,INVALID,109.834,VALID,0,VALID,22.6614,VALID,107,VALID,0,
2014-07-22, 03:27:04,VALID,1009.49,VALID,0,INVALID,109.834,VALID,0,VALID,22.6614,VALID,107,VALID,0,
2014-07-22, 03:28:04,VALID,1009.46,VALID,0,INVALID,109.803,VALID,0,VALID,22.6614,VALID,107,VALID,0,
2014-07-22, 03:29:04,VALID,1009.41,VALID,0,INVALID,109.811,VALID,0,VALID,22.6614,VALID,107,VALID,0,
2014-07-22, 03:30:04,VALID,1009.39,VALID,0,INVALID,109.803,VALID,0,VALID,22.642,VALID,107,VALID,0,
2014-07-22, 03:31:04,VALID,1009.39,VALID,0,INVALID,109.841,VALID,0,VALID,22.642,VALID,107,VALID,0,
2014-07-22, 03:32:04,VALID,1009.36,VALID,0,INVALID,109.849,VALID,0,VALID,22.6225,VALID,107,VALID,0,
2014-07-22, 03:33:04,VALID,1009.35,VALID,0,INVALID,109.872,VALID,0,VALID,22.603,VALID,107,VALID,0,
2014-07-22, 03:34:04,VALID,1009.36,VALID,0,INVALID,109.887,VALID,0,VALID,22.5835,VALID,107,VALID,0,
2014-07-22, 03:35:04,VALID,1009.37,VALID,0,INVALID,109.887,VALID,0,VALID,22.5835,VALID,107,VALID,0,
2014-07-22, 03:36:04,VALID,1009.38,VALID,0,INVALID,109.834,VALID,0,VALID,22.6242,VALID,107,VALID,0,
2014-07-22, 03:37:04,VALID,1009.4,VALID,0,INVALID,109.811,VALID,0,VALID,22.6225,VALID,107,VALID,0,
2014-07-22, 03:38:04,VALID,1009.4,VALID,0,INVALID,109.78,VALID,0,VALID,22.642,VALID,107,VALID,0,
2014-07-22, 03:39:04,VALID,1009.4,VALID,0,INVALID,109.78,VALID,0,VALID,22.6614,VALID,107,VALID,0,
2014-07-22, 03:40:04,VALID,1009.4,VALID,0,INVALID,109.788,VALID,0,VALID,22.6614,VALID,107,VALID,0,
2014-07-22, 03:41:04,VALID,1009.4,VALID,0,INVALID,109.75,VALID,0,VALID,22.6826,VALID,107,VALID,0,
2014-07-22, 03:42:04,VALID,1009.41,VALID,0,INVALID,109.704,VALID,0,VALID,22.7004,VALID,107,VALID,0,
2014-07-22, 03:43:04,VALID,1009.45,VALID,0,INVALID,109.674,VALID,0,VALID,22.7199,VALID,107,VALID,0,
2014-07-22, 03:44:04,VALID,1009.49,VALID,0,INVALID,109.696,VALID,0,VALID,22.7199,VALID,107,VALID,0,
2014-07-22, 03:45:04,VALID,1009.51,VALID,0,INVALID,109.719,VALID,0,VALID,22.7199,VALID,107,VALID,0,
2014-07-22, 03:46:04,VALID,1009.51,VALID,0,INVALID,109.712,VALID,0,VALID,22.7004,VALID,107,VALID,0,
2014-07-22, 03:47:04,VALID,1009.51,VALID,0,INVALID,109.727,VALID,0,VALID,22.7004,VALID,107,VALID,0,
2014-07-22, 03:48:04,VALID,1009.5,VALID,0,INVALID,109.742,VALID,0,VALID,22.6809,VALID,107,VALID,0,
2014-07-22, 03:49:04,VALID,1009.5,VALID,0,INVALID,109.742,VALID,0.112112,VALID,22.6614,VALID,107,VALID,0,
2014-07-22, 03:50:04,VALID,1009.5,VALID,0,INVALID,109.727,VALID,0,VALID,22.6614,VALID,107,VALID,0,
2014-07-22, 03:51:04,VALID,1009.48,VALID,0,INVALID,109.742,VALID,0,VALID,22.642,VALID,107,VALID,0,
2014-07-22, 03:52:04,VALID,1009.51,VALID,0,INVALID,109.742,VALID,0,VALID,22.642,VALID,107,VALID,0,
2014-07-22, 03:53:04,VALID,1009.53,VALID,0,INVALID,109.742,VALID,0,VALID,22.6225,VALID,107,VALID,0,